PDT,Max TemperatureF,Mean TemperatureF,Min TemperatureF,Max Dew PointF,MeanDew PointF,Min DewpointF,Max Humidity, Mean Humidity, Min Humidity, Max Sea Level PressureIn, Mean Sea Level PressureIn, Min Sea Level PressureIn, Max VisibilityMiles, Mean VisibilityMiles, Min VisibilityMiles, Max Wind SpeedMPH, Mean Wind SpeedMPH, Max Gust SpeedMPH,PrecipitationIn, CloudCover, Events, WindDirDegrees
2013-7-1,107,85,63,59,52,42,63,39,14,29.87,29.81,29.75,10,10,10,23,6,29,0.00,0,,223
2013-7-2,103,83,62,54,52,47,67,42,16,29.92,29.89,29.86,10,10,10,25,9,31,0.00,0,,200
2013-7-3,106,84,61,54,48,41,72,42,12,29.91,29.82,29.72,10,10,10,22,5,25,0.00,0,,219
2013-7-4,102,83,64,54,52,49,63,41,19,29.78,29.74,29.68,10,10,10,24,8,29,0.00,0,,215
2013-7-5,90,74,57,52,50,48,72,48,24,29.80,29.76,29.71,10,10,10,24,9,29,0.00,0,,255
2013-7-6,86,68,50,52,49,45,89,57,25,29.84,29.79,29.72,10,10,7,21,7,26,0.00,1,,237
2013-7-7,94,72,49,50,41,15,86,46,6,29.86,29.81,29.77,10,10,10,21,7,25,0.00,0,,211
2013-7-8,99,73,47,50,38,9,89,47,4,29.96,29.90,29.86,10,10,10,20,6,29,0.00,1,,254
2013-7-9,109,81,52,49,42,29,72,40,7,30.01,29.95,29.88,10,10,10,21,5,25,0.00,0,,232
2013-7-10,99,78,56,50,45,29,77,43,9,29.97,29.92,29.86,10,10,5,20,6,23,T,0,,241
2013-7-11,87,72,56,56,49,32,86,50,14,29.93,29.90,29.86,10,10,10,22,9,29,0.00,0,,253
2013-7-12,91,70,48,53,48,43,89,58,27,29.95,29.90,29.83,10,10,7,17,6,93,0.00,0,,214
2013-7-13,97,73,49,47,42,18,74,40,6,29.96,29.93,29.89,10,10,10,18,7,23,0.00,0,,297
2013-7-14,100,76,51,47,42,27,77,43,8,29.99,29.92,29.84,10,10,10,20,6,24,0.00,0,,232
2013-7-15,88,70,51,50,47,40,89,54,19,29.94,29.87,29.79,10,10,9,24,9,30,0.00,1,,234
2013-7-16,86,69,52,51,48,40,89,55,20,30.01,29.93,29.88,10,10,10,21,8,25,0.00,3,,245
2013-7-17,97,75,52,52,48,37,93,53,13,30.07,30.01,29.93,10,10,10,17,7,22,0.00,2,,294
2013-7-18,101,77,52,51,44,32,89,50,10,30.05,29.96,29.86,10,10,9,24,6,30,0.00,0,,302
2013-7-19,101,77,52,50,43,23,89,48,6,29.94,29.86,29.77,10,10,10,20,5,23,0.00,0,,262
2013-7-20,89,71,53,51,49,48,83,55,26,29.86,29.80,29.74,10,10,10,25,8,32,0.00,0,,247
2013-7-21,93,75,56,57,53,48,77,50,23,29.89,29.81,29.78,10,10,10,22,9,30,0.00,0,,199
2013-7-22,91,78,65,59,54,44,73,48,22,29.95,29.91,29.83,10,10,10,21,7,17,T,0,Rain,209
2013-7-23,96,80,64,54,47,32,67,40,12,29.99,29.94,29.88,10,10,10,24,8,60,0.00,1,,222
2013-7-24,103,81,58,53,51,46,75,46,16,29.98,29.92,29.82,10,10,10,16,5,,0.00,0,,218
2013-7-25,101,81,61,53,51,47,72,45,18,30.01,29.94,29.89,10,10,10,23,6,26,0.00,0,,247
2013-7-26,100,79,57,51,49,42,72,44,16,30.07,30.01,29.94,10,10,10,22,6,28,0.00,0,,240
2013-7-27,98,77,56,52,50,45,80,49,17,30.01,29.92,29.81,10,10,10,21,6,25,0.00,0,,229
2013-7-28,84,70,55,53,51,48,86,59,31,29.88,29.84,29.80,10,10,10,28,10,31,0.00,0,,214
2013-7-29,82,68,53,54,51,46,89,60,30,30.02,29.94,29.87,10,10,10,17,10,62,0.00,1,,203
2013-7-30,81,66,50,52,49,46,89,60,30,30.09,30.05,30.00,10,10,6,24,9,61,0.00,1,,202
2013-7-31,87,69,51,52,49,44,93,61,29,30.10,30.04,29.95,10,9,4,24,8,76,0.00,1,,256